Time,TemperatureF,DewpointF,PressureIn,WindDirection,WindDirectionDegrees,WindSpeedMPH,WindSpeedGustMPH,Humidity,HourlyPrecipIn,Conditions,Clouds,dailyrainin,SolarRadiationWatts/m^2,SoftwareType,DateUTC
2013-07-01 00:01:00,64.0,61.0,29.92,South,190,0.0,-999.0,89,-99.99,,,-99.99,0.000000,,2013-07-01 04:01:00,
2013-07-01 00:11:00,64.0,61.0,29.92,South,190,0.0,-999.0,89,-99.99,,,-99.99,0.000000,,2013-07-01 04:11:00,
2013-07-01 00:22:00,64.0,61.0,29.93,South,190,0.0,-999.0,90,-99.99,,,-99.99,0.000000,,2013-07-01 04:22:00,
2013-07-01 00:32:00,64.0,61.0,29.93,South,190,0.0,-999.0,90,-99.99,,,-99.99,0.000000,,2013-07-01 04:32:00,
2013-07-01 00:43:00,63.0,60.0,29.92,South,190,0.0,-999.0,90,-99.99,,,-99.99,0.000000,,2013-07-01 04:43:00,
2013-07-01 00:53:00,63.0,60.0,29.93,South,190,0.0,-999.0,90,-99.99,,,-99.99,0.000000,,2013-07-01 04:53:00,
2013-07-01 01:02:00,63.0,60.0,29.93,South,190,0.0,-999.0,90,-99.99,,,-99.99,0.000000,,2013-07-01 05:02:00,
2013-07-01 01:11:00,62.0,59.0,29.93,South,190,1.0,-999.0,91,-99.99,,,-99.99,0.000000,,2013-07-01 05:11:00,
2013-07-01 01:22:00,62.0,59.0,29.93,South,190,1.0,-999.0,91,-99.99,,,-99.99,0.000000,,2013-07-01 05:22:00,
2013-07-01 01:33:00,62.0,59.0,29.93,South,190,0.0,-999.0,91,-99.99,,,-99.99,0.000000,,2013-07-01 05:33:00,
2013-07-01 01:42:00,62.0,59.0,29.93,South,190,0.0,-999.0,91,-99.99,,,-99.99,0.000000,,2013-07-01 05:42:00,
2013-07-01 01:52:00,62.0,59.0,29.93,South,190,0.0,-999.0,91,-99.99,,,-99.99,0.000000,,2013-07-01 05:52:00,
2013-07-01 02:02:00,62.0,60.0,29.93,South,190,0.0,-999.0,92,-99.99,,,-99.99,0.000000,,2013-07-01 06:02:00,
2013-07-01 02:12:00,61.0,59.0,29.93,South,190,0.0,-999.0,92,-99.99,,,-99.99,0.000000,,2013-07-01 06:12:00,
2013-07-01 02:24:00,61.0,59.0,29.93,South,190,0.0,-999.0,92,-99.99,,,-99.99,0.000000,,2013-07-01 06:24:00,
2013-07-01 02:33:00,61.0,59.0,29.92,South,190,0.0,-999.0,92,-99.99,,,-99.99,0.000000,,2013-07-01 06:33:00,
2013-07-01 02:43:00,61.0,59.0,29.92,South,190,0.0,-999.0,92,-99.99,,,-99.99,0.000000,,2013-07-01 06:43:00,
2013-07-01 02:53:00,61.0,59.0,29.92,South,190,0.0,-999.0,92,-99.99,,,-99.99,0.000000,,2013-07-01 06:53:00,
2013-07-01 03:01:00,61.0,59.0,29.91,South,190,1.0,-999.0,93,-99.99,,,-99.99,0.000000,,2013-07-01 07:01:00,
2013-07-01 03:11:00,61.0,59.0,29.91,South,190,0.0,-999.0,93,-99.99,,,-99.99,0.000000,,2013-07-01 07:11:00,
2013-07-01 03:22:00,61.0,59.0,29.91,South,190,0.0,-999.0,93,-99.99,,,-99.99,0.000000,,2013-07-01 07:22:00,
2013-07-01 03:33:00,61.0,59.0,29.92,South,190,0.0,-999.0,93,-99.99,,,-99.99,0.000000,,2013-07-01 07:33:00,
2013-07-01 03:43:00,61.0,59.0,29.92,South,190,0.0,-999.0,93,-99.99,,,-99.99,0.000000,,2013-07-01 07:43:00,
2013-07-01 03:53:00,61.0,59.0,29.92,South,190,0.0,-999.0,93,-99.99,,,-99.99,0.000000,,2013-07-01 07:53:00,
2013-07-01 04:01:00,61.0,59.0,29.92,South,190,0.0,-999.0,93,-99.99,,,-99.99,0.000000,,2013-07-01 08:01:00,
2013-07-01 04:12:00,61.0,59.0,29.91,South,190,1.0,-999.0,93,-99.99,,,-99.99,0.000000,,2013-07-01 08:12:00,
2013-07-01 04:22:00,61.0,59.0,29.91,South,190,1.0,-999.0,93,-99.99,,,-99.99,0.000000,,2013-07-01 08:22:00,
2013-07-01 04:33:00,61.0,59.0,29.91,South,190,0.0,-999.0,93,-99.99,,,-99.99,0.000000,,2013-07-01 08:33:00,
2013-07-01 04:43:00,61.0,59.0,29.92,South,190,0.0,-999.0,94,-99.99,,,-99.99,0.000000,,2013-07-01 08:43:00,
2013-07-01 04:52:00,61.0,59.0,29.92,South,190,0.0,-999.0,94,-99.99,,,-99.99,0.000000,,2013-07-01 08:52:00,
2013-07-01 05:02:00,61.0,59.0,29.93,South,190,0.0,-999.0,94,-99.99,,,-99.99,0.000000,,2013-07-01 09:02:00,
2013-07-01 05:12:00,61.0,59.0,29.93,South,190,0.0,-999.0,94,-99.99,,,-99.99,0.000000,,2013-07-01 09:12:00,
2013-07-01 05:22:00,61.0,59.0,29.93,South,190,0.0,-999.0,94,-99.99,,,-99.99,0.000000,,2013-07-01 09:22:00,
2013-07-01 05:34:00,61.0,59.0,29.93,South,190,0.0,-999.0,94,-99.99,,,-99.99,0.000000,,2013-07-01 09:34:00,
2013-07-01 05:43:00,61.0,59.0,29.93,South,190,0.0,-999.0,94,-99.99,,,-99.99,0.000000,,2013-07-01 09:43:00,
2013-07-01 05:53:00,61.0,59.0,29.93,South,190,0.0,-999.0,94,-99.99,,,-99.99,0.000000,,2013-07-01 09:53:00,
2013-07-01 06:03:00,61.0,59.0,29.94,South,190,0.0,-999.0,94,-99.99,,,-99.99,0.000000,,2013-07-01 10:03:00,
2013-07-01 06:11:00,61.0,59.0,29.94,South,190,0.0,-999.0,94,-99.99,,,-99.99,11.000000,,2013-07-01 10:11:00,
2013-07-01 06:22:00,61.0,59.0,29.94,South,190,0.0,-999.0,94,-99.99,,,-99.99,11.000000,,2013-07-01 10:22:00,
2013-07-01 06:33:00,62.0,60.0,29.95,South,190,0.0,-999.0,94,-99.99,,,-99.99,23.000000,,2013-07-01 10:33:00,
2013-07-01 06:43:00,62.0,61.0,29.94,South,190,1.0,-999.0,95,-99.99,,,-99.99,28.000000,,2013-07-01 10:43:00,
2013-07-01 06:52:00,62.0,61.0,29.94,South,190,1.0,-999.0,95,-99.99,,,-99.99,28.000000,,2013-07-01 10:52:00,
2013-07-01 07:02:00,62.0,61.0,29.95,South,190,0.0,-999.0,95,-99.99,,,-99.99,32.000000,,2013-07-01 11:02:00,
2013-07-01 07:12:00,63.0,62.0,29.95,South,191,1.0,-999.0,95,-99.99,,,-99.99,33.000000,,2013-07-01 11:12:00,
2013-07-01 07:22:00,63.0,62.0,29.95,South,191,1.0,-999.0,95,-99.99,,,-99.99,33.000000,,2013-07-01 11:22:00,
2013-07-01 07:33:00,63.0,62.0,29.95,South,191,0.0,-999.0,95,-99.99,,,-99.99,76.000000,,2013-07-01 11:33:00,
2013-07-01 07:43:00,64.0,63.0,29.95,East,93,2.0,-999.0,95,-99.99,,,-99.99,65.000000,,2013-07-01 11:43:00,
2013-07-01 07:52:00,64.0,63.0,29.95,East,93,2.0,-999.0,95,-99.99,,,-99.99,65.000000,,2013-07-01 11:52:00,
2013-07-01 08:01:00,64.0,63.0,29.94,ENE,57,3.0,-999.0,95,-99.99,,,-99.99,63.000000,,2013-07-01 12:01:00,
2013-07-01 08:11:00,64.0,62.0,29.95,NE,49,3.0,-999.0,94,-99.99,,,-99.99,83.000000,,2013-07-01 12:11:00,
2013-07-01 08:22:00,64.0,62.0,29.95,NE,49,3.0,-999.0,94,-99.99,,,-99.99,83.000000,,2013-07-01 12:22:00,
2013-07-01 08:33:00,65.0,63.0,29.94,NNE,26,2.0,-999.0,94,-99.99,,,-99.99,98.000000,,2013-07-01 12:33:00,
2013-07-01 08:43:00,65.0,63.0,29.95,NNE,30,1.0,-999.0,94,-99.99,,,-99.99,105.000000,,2013-07-01 12:43:00,
2013-07-01 08:53:00,65.0,63.0,29.95,NNE,30,1.0,-999.0,94,-99.99,,,-99.99,105.000000,,2013-07-01 12:53:00,
2013-07-01 09:02:00,65.0,63.0,29.96,West,278,1.0,-999.0,94,-99.99,,,-99.99,109.000000,,2013-07-01 13:02:00,
2013-07-01 09:12:00,66.0,64.0,29.97,ENE,59,2.0,-999.0,93,-99.99,,,-99.99,111.000000,,2013-07-01 13:12:00,
2013-07-01 09:23:00,66.0,64.0,29.97,ENE,59,2.0,-999.0,93,-99.99,,,-99.99,111.000000,,2013-07-01 13:23:00,
2013-07-01 09:53:00,66.0,64.0,29.97,ENE,60,3.0,-999.0,93,-99.99,,,-99.99,153.000000,,2013-07-01 13:53:00,
2013-07-01 10:11:00,66.0,64.0,29.97,East,82,4.0,-999.0,93,-99.99,,,-99.99,190.000000,,2013-07-01 14:11:00,
2013-07-01 10:22:00,66.0,64.0,29.97,East,84,1.0,-999.0,93,-99.99,,,-99.99,153.000000,,2013-07-01 14:22:00,
2013-07-01 10:34:00,66.0,64.0,29.97,East,84,1.0,-999.0,93,-99.99,,,-99.99,153.000000,,2013-07-01 14:34:00,
2013-07-01 10:53:00,66.0,64.0,29.97,NNE,18,3.0,-999.0,92,-99.99,,,-99.99,213.000000,,2013-07-01 14:53:00,
2013-07-01 11:02:00,67.0,65.0,29.97,East,92,3.0,-999.0,92,-99.99,,,-99.99,295.000000,,2013-07-01 15:02:00,
2013-07-01 11:12:00,67.0,65.0,29.97,East,92,3.0,-999.0,92,-99.99,,,-99.99,295.000000,,2013-07-01 15:12:00,
2013-07-01 11:23:00,67.0,65.0,29.96,WNW,294,4.0,-999.0,92,-99.99,,,-99.99,299.000000,,2013-07-01 15:23:00,
2013-07-01 11:34:00,68.0,65.0,29.97,ENE,67,3.0,-999.0,90,-99.99,,,-99.99,230.000000,,2013-07-01 15:34:00,
2013-07-01 11:53:00,68.0,65.0,29.97,ENE,63,2.0,-999.0,90,-99.99,,,-99.99,378.000000,,2013-07-01 15:53:00,
2013-07-01 12:01:00,68.0,65.0,29.96,East,100,3.0,-999.0,90,-99.99,,,-99.99,360.000000,,2013-07-01 16:01:00,
2013-07-01 12:11:00,68.0,65.0,29.96,East,100,3.0,-999.0,90,-99.99,,,-99.99,360.000000,,2013-07-01 16:11:00,
2013-07-01 12:22:00,71.0,67.0,29.96,NNW,341,3.0,-999.0,88,-99.99,,,-99.99,596.000000,,2013-07-01 16:22:00,
2013-07-01 12:33:00,72.0,66.0,29.96,ENE,61,5.0,-999.0,82,-99.99,,,-99.99,,,2013-07-01 16:33:00,
2013-07-01 12:44:00,75.0,67.0,29.96,ESE,117,3.0,-999.0,77,-99.99,,,-99.99,696.000000,,2013-07-01 16:44:00,
2013-07-01 12:53:00,75.0,67.0,29.96,ESE,117,3.0,-999.0,77,-99.99,,,-99.99,696.000000,,2013-07-01 16:53:00,
2013-07-01 13:02:00,75.0,67.0,29.96,ENE,73,4.0,-999.0,76,-99.99,,,-99.99,,,2013-07-01 17:02:00,
2013-07-01 13:12:00,75.0,67.0,29.96,ENE,73,4.0,-999.0,76,-99.99,,,-99.99,,,2013-07-01 17:12:00,
2013-07-01 13:23:00,75.0,66.0,29.96,NNE,22,4.0,-999.0,74,-99.99,,,-99.99,381.000000,,2013-07-01 17:23:00,
2013-07-01 13:34:00,75.0,66.0,29.96,NNE,22,4.0,-999.0,74,-99.99,,,-99.99,381.000000,,2013-07-01 17:34:00,
2013-07-01 13:43:00,74.0,66.0,29.96,SE,144,4.0,-999.0,76,-99.99,,,-99.99,441.000000,,2013-07-01 17:43:00,
2013-07-01 13:53:00,75.0,67.0,29.96,South,178,3.0,-999.0,76,-99.99,,,-99.99,480.000000,,2013-07-01 17:53:00,
2013-07-01 14:02:00,75.0,65.0,29.96,SE,131,6.0,-999.0,72,-99.99,,,-99.99,438.000000,,2013-07-01 18:02:00,
2013-07-01 14:11:00,75.0,65.0,29.96,SE,131,6.0,-999.0,72,-99.99,,,-99.99,438.000000,,2013-07-01 18:11:00,
2013-07-01 14:22:00,77.0,68.0,29.95,ESE,102,2.0,-999.0,73,-99.99,,,-99.99,512.000000,,2013-07-01 18:22:00,
2013-07-01 14:33:00,75.0,66.0,29.95,East,83,5.0,-999.0,74,-99.99,,,-99.99,234.000000,,2013-07-01 18:33:00,
2013-07-01 14:44:00,73.0,66.0,29.96,SSE,148,4.0,-999.0,79,-99.99,,,-99.99,244.000000,,2013-07-01 18:44:00,
2013-07-01 14:53:00,73.0,66.0,29.96,SSE,148,4.0,-999.0,79,-99.99,,,-99.99,244.000000,,2013-07-01 18:53:00,
2013-07-01 15:02:00,73.0,65.0,29.95,SE,125,4.0,-999.0,77,-99.99,,,-99.99,439.000000,,2013-07-01 19:02:00,
2013-07-01 15:11:00,73.0,65.0,29.95,SE,125,4.0,-999.0,77,-99.99,,,-99.99,439.000000,,2013-07-01 19:11:00,
2013-07-01 15:22:00,75.0,65.0,29.95,SE,131,6.0,-999.0,72,-99.99,,,-99.99,279.000000,,2013-07-01 19:22:00,
2013-07-01 15:33:00,75.0,65.0,29.95,SE,131,6.0,-999.0,72,-99.99,,,-99.99,279.000000,,2013-07-01 19:33:00,
2013-07-01 15:44:00,74.0,65.0,29.96,SSW,192,5.0,-999.0,74,-99.99,,,-99.99,162.000000,,2013-07-01 19:44:00,
2013-07-01 15:53:00,74.0,65.0,29.96,SSW,192,5.0,-999.0,74,-99.99,,,-99.99,162.000000,,2013-07-01 19:53:00,
2013-07-01 16:02:00,74.0,66.0,29.96,SSE,165,4.0,-999.0,75,-99.99,,,-99.99,202.000000,,2013-07-01 20:02:00,
2013-07-01 16:11:00,74.0,66.0,29.96,SSE,165,4.0,-999.0,75,-99.99,,,-99.99,202.000000,,2013-07-01 20:11:00,
2013-07-01 16:22:00,73.0,65.0,29.96,SE,124,4.0,-999.0,75,-99.99,,,-99.99,86.000000,,2013-07-01 20:22:00,
2013-07-01 16:34:00,73.0,65.0,29.96,SE,126,4.0,-999.0,77,-99.99,,,-99.99,195.000000,,2013-07-01 20:34:00,
2013-07-01 16:43:00,73.0,65.0,29.96,SE,126,4.0,-999.0,77,-99.99,,,-99.99,195.000000,,2013-07-01 20:43:00,
2013-07-01 16:52:00,73.0,65.0,29.95,SSE,161,5.0,-999.0,77,-99.99,,,-99.99,202.000000,,2013-07-01 20:52:00,
2013-07-01 17:02:00,73.0,65.0,29.95,SE,136,5.0,-999.0,77,-99.99,,,-99.99,169.000000,,2013-07-01 21:02:00,
2013-07-01 17:11:00,73.0,65.0,29.95,SE,136,5.0,-999.0,77,-99.99,,,-99.99,169.000000,,2013-07-01 21:11:00,
2013-07-01 17:24:00,73.0,65.0,29.95,SE,140,6.0,-999.0,77,-99.99,,,-99.99,158.000000,,2013-07-01 21:24:00,
2013-07-01 17:34:00,73.0,65.0,29.95,SSW,192,3.0,-999.0,77,-99.99,,,-99.99,102.000000,,2013-07-01 21:34:00,
2013-07-01 17:43:00,73.0,65.0,29.95,SSW,192,3.0,-999.0,77,-99.99,,,-99.99,102.000000,,2013-07-01 21:43:00,
2013-07-01 17:53:00,72.0,65.0,29.95,SE,132,3.0,-999.0,79,-99.99,,,-99.99,121.000000,,2013-07-01 21:53:00,
2013-07-01 18:01:00,72.0,65.0,29.96,SSW,198,3.0,-999.0,79,-99.99,,,-99.99,151.000000,,2013-07-01 22:01:00,
2013-07-01 18:11:00,72.0,65.0,29.96,SSW,198,3.0,-999.0,79,-99.99,,,-99.99,151.000000,,2013-07-01 22:11:00,
2013-07-01 18:33:00,73.0,66.0,29.96,SSE,156,2.0,-999.0,79,-99.99,,,-99.99,229.000000,,2013-07-01 22:33:00,
2013-07-01 18:43:00,73.0,66.0,29.96,SSE,165,1.0,-999.0,79,-99.99,,,-99.99,130.000000,,2013-07-01 22:43:00,
2013-07-01 18:53:00,73.0,66.0,29.96,SSE,157,3.0,-999.0,78,-99.99,,,-99.99,72.000000,,2013-07-01 22:53:00,
2013-07-01 19:11:00,73.0,66.0,29.96,South,174,4.0,-999.0,79,-99.99,,,-99.99,76.000000,,2013-07-01 23:11:00,
2013-07-01 19:22:00,72.0,65.0,29.97,SE,124,4.0,-999.0,80,-99.99,,,-99.99,35.000000,,2013-07-01 23:22:00,
2013-07-01 19:33:00,72.0,66.0,29.98,SE,130,4.0,-999.0,81,-99.99,,,-99.99,58.000000,,2013-07-01 23:33:00,
2013-07-01 19:44:00,72.0,66.0,29.98,SE,130,4.0,-999.0,81,-99.99,,,-99.99,58.000000,,2013-07-01 23:44:00,
2013-07-01 19:53:00,72.0,66.0,29.98,SE,144,4.0,-999.0,81,-99.99,,,-99.99,37.000000,,2013-07-01 23:53:00,
2013-07-01 20:01:00,72.0,66.0,29.98,East,97,6.0,-999.0,82,-99.99,,,-99.99,23.000000,,2013-07-02 00:01:00,
2013-07-01 20:12:00,72.0,66.0,29.98,East,97,6.0,-999.0,82,-99.99,,,-99.99,23.000000,,2013-07-02 00:12:00,
2013-07-01 20:22:00,70.0,65.0,29.99,SW,221,8.0,-999.0,84,-99.99,,,-99.99,14.000000,,2013-07-02 00:22:00,
2013-07-01 20:34:00,69.0,65.0,29.99,SSE,165,4.0,-999.0,87,-99.99,,,-99.99,5.000000,,2013-07-02 00:34:00,
2013-07-01 20:43:00,69.0,65.0,29.99,SSE,165,4.0,-999.0,87,-99.99,,,-99.99,5.000000,,2013-07-02 00:43:00,
2013-07-01 20:53:00,69.0,65.0,29.99,South,189,2.0,-999.0,88,-99.99,,,-99.99,5.000000,,2013-07-02 00:53:00,
2013-07-01 21:01:00,69.0,65.0,29.99,South,189,2.0,-999.0,88,-99.99,,,-99.99,5.000000,,2013-07-02 01:01:00,
2013-07-01 21:11:00,69.0,66.0,30.00,SSW,206,1.0,-999.0,89,-99.99,,,-99.99,0.000000,,2013-07-02 01:11:00,
2013-07-01 21:22:00,68.0,65.0,30.00,SSW,206,0.0,-999.0,90,-99.99,,,-99.99,0.000000,,2013-07-02 01:22:00,
2013-07-01 21:33:00,68.0,65.0,30.01,SSW,206,0.0,-999.0,91,-99.99,,,-99.99,0.000000,,2013-07-02 01:33:00,
2013-07-01 21:43:00,68.0,65.0,30.01,SSW,206,0.0,-999.0,91,-99.99,,,-99.99,0.000000,,2013-07-02 01:43:00,
2013-07-01 21:53:00,68.0,65.0,30.01,SSW,206,0.0,-999.0,91,-99.99,,,-99.99,0.000000,,2013-07-02 01:53:00,
2013-07-01 22:02:00,68.0,65.0,30.01,SSW,206,0.0,-999.0,91,-99.99,,,-99.99,0.000000,,2013-07-02 02:02:00,
2013-07-01 22:12:00,68.0,66.0,30.02,SSW,206,0.0,-999.0,92,-99.99,,,-99.99,0.000000,,2013-07-02 02:12:00,
2013-07-01 22:22:00,68.0,66.0,30.01,SSW,206,0.0,-999.0,92,-99.99,,,-99.99,0.000000,,2013-07-02 02:22:00,
2013-07-01 22:34:00,68.0,66.0,30.01,SSW,206,0.0,-999.0,92,-99.99,,,-99.99,0.000000,,2013-07-02 02:34:00,
2013-07-01 22:43:00,68.0,66.0,30.02,SSW,206,0.0,-999.0,92,-99.99,,,-99.99,0.000000,,2013-07-02 02:43:00,
2013-07-01 22:53:00,68.0,66.0,30.02,SSW,206,0.0,-999.0,93,-99.99,,,-99.99,0.000000,,2013-07-02 02:53:00,
2013-07-01 23:02:00,68.0,66.0,30.02,SSW,206,0.0,-999.0,93,-99.99,,,-99.99,0.000000,,2013-07-02 03:02:00,
2013-07-01 23:12:00,68.0,66.0,30.02,SSW,206,0.0,-999.0,93,-99.99,,,-99.99,0.000000,,2013-07-02 03:12:00,
2013-07-01 23:32:00,67.0,65.0,30.02,SSW,206,0.0,-999.0,93,-99.99,,,-99.99,0.000000,,2013-07-02 03:32:00,
2013-07-01 23:43:00,67.0,65.0,30.03,SSW,206,0.0,-999.0,93,-99.99,,,-99.99,0.000000,,2013-07-02 03:43:00,
2013-07-01 23:53:00,68.0,66.0,30.02,SSW,206,0.0,-999.0,93,-99.99,,,-99.99,0.000000,,2013-07-02 03:53:00,